Showing default

WNISAT 1R, 42835

Orbit data source: Space-Track

WNISAT 1R, 42835 is a payload satellite owned by WNI (JP) in SSO that was launched on Fri, 14 Jul 2017 UTC via a SOYUZ-2-1A launch vehicle from the Tyuratam Missile And Space Complex (TTMTR). Payloads include a variety of satellites, spacecraft, and rockets equipped with specific instruments for various scientific and technological missions. These include communications satellites like Starlink; space stations such as the ISS; scientific satellites like the Hubble; Earth observation satellites from companies like Planet Labs, Umbra, and HawkEye 360; GPS; miniature CubeSats for education and research; and military/defense satellites.

Loading next visibility...
WNISAT 1R details
Identifier
42835, 2017-042L
Orbit
SSO
Last TLE update4 hours ago
Origin
Flag of JPWNI (JP / JPN)
ManufacturerAXELSPACE
MissionOperational Commercial Weather
Bus & MotorHODOYOSHI, Unknown motor
Mass40 kg wet, 40 kg dry
Launch date (UTC)
2017-07-14 (7 years ago)
Launch vehicle
SOYUZ-2-1A
Launch site
Tyuratam Missile And Space Complex (TTMTR)
Object type
Payload
Rocket body
Debris
Shape & HBRBox + 2 Pan, 1.5 m
Radar Cross Section0.514 m², Medium (>0.1 m² and < 1m²)

Expand to show TLE details & history

TLE from 4 hours ago
0 WNISAT 1R
1 42835U 17042L   24361.46525728  .00005210  00000-0  45112-3 0  9995
2 42835  97.3873 171.5222 0012036 142.1628 218.0444 14.97479170405918
Epoch: 2024-12-26T11:09Z
Definitive object data (Epoch: 2024-12-26T11:09:58.228Z)
Latitude0.00002°
Longitude-91.41468°
Altitude584.344 km
Speed7.565 km/s
True Right ascension11h 26m 05s
True Declination0° 00' 00"
Sunlit
Object was in daylight at TLE epoch
Visualization TLE readout
Latitude-34.38134°
Longitude83.68756°
Altitude585.258 km
Speed7.568 km/s
Apparent Right ascension00h 44m 45s
Apparent Declination-40° 01' 06"
Sunlit
Object is in daylight
Visualization observer readout
Local Sidereal Time14:41:37
Azimuth99.761° ESE
Elevation-67.707°
Doppler factor1
Orbital elements
Apogee altitude580.048 km
Perigee altitude563.319 km
Semi-major axis6,949.82 km
Eccentricity0.0012036
Inclination97.3873°
RAAN171.5222°
Arg. of periapsis142.1628°
True anomaly217.9595°
Mean anomaly218.0444°
Eccentric anomaly218.00194°
Mean motion3.74613 °/min
BSTAR0.00045112
Orbital period96.1 mins
Loading maneuver chart data...

WNISAT 1R Visibility forecast

Observer location: undefined°, undefined

Span
Click to sort rows by Start time (UTC) header in descending order
Start Az.
Max El. time (UTC)
Max El. Az.
Max El.
End time (UTC)
End Az.
7 mins2024-12-27 00:33:38.345Z6.833° NNE2024-12-27 00:36:38.345Z322.692° NNW43.006°2024-12-27 00:40:38.345Z199.793° SSW
6 mins2024-12-27 11:21:38.345Z148.211° SSE2024-12-27 11:24:38.345Z47.796° ENE39.231°2024-12-27 11:27:38.345Z358.211° N
|